Year,Month,Day,Hour,Minute,Value (Times are PST for temperature in C)
2009,06,05,00,00,20.40
2009,06,05,00,01,20.40
2009,06,05,00,02,20.30
2009,06,05,00,03,20.20
2009,06,05,00,04,20.20
2009,06,05,00,05,20.10
2009,06,05,00,06,20.10
2009,06,05,00,07,20.00
2009,06,05,00,08,19.90
2009,06,05,00,09,19.90
2009,06,05,00,10,19.90
2009,06,05,00,11,19.90
2009,06,05,00,12,19.80
2009,06,05,00,13,19.80
2009,06,05,00,14,19.70
2009,06,05,00,15,19.70
2009,06,05,00,16,19.60
2009,06,05,00,17,19.60
2009,06,05,00,18,19.50
2009,06,05,00,19,19.40
2009,06,05,00,20,19.40
2009,06,05,00,21,19.30
2009,06,05,00,22,19.30
2009,06,05,00,23,19.30
2009,06,05,00,24,19.20
2009,06,05,00,25,19.20
2009,06,05,00,26,19.20
2009,06,05,00,27,19.20
2009,06,05,00,28,19.30
2009,06,05,00,29,19.30
2009,06,05,00,30,19.30
2009,06,05,00,31,19.30
2009,06,05,00,32,19.40
2009,06,05,00,33,19.40
2009,06,05,00,34,19.50
2009,06,05,00,35,19.50
2009,06,05,00,36,19.50
2009,06,05,00,37,19.60
2009,06,05,00,38,19.70
2009,06,05,00,39,19.80
2009,06,05,00,40,19.80
2009,06,05,00,41,19.90
2009,06,05,00,42,19.90
2009,06,05,00,43,19.90
2009,06,05,00,44,19.90
2009,06,05,00,45,19.90
2009,06,05,00,46,19.90
2009,06,05,00,47,19.90
2009,06,05,00,48,19.90
2009,06,05,00,49,19.90
2009,06,05,00,50,19.90
2009,06,05,00,51,20.00
2009,06,05,00,52,20.10
2009,06,05,00,53,20.10
2009,06,05,00,54,20.10
2009,06,05,00,55,19.90
2009,06,05,00,56,19.90
2009,06,05,00,57,19.90
2009,06,05,00,58,19.90
2009,06,05,00,59,19.90
2009,06,05,01,00,19.90
2009,06,05,01,01,19.90
2009,06,05,01,02,19.90
2009,06,05,01,03,19.90
2009,06,05,01,04,19.90
2009,06,05,01,05,19.90
2009,06,05,01,06,19.90
2009,06,05,01,07,19.90
2009,06,05,01,08,19.90
2009,06,05,01,09,19.90
2009,06,05,01,10,19.90
2009,06,05,01,11,19.90
2009,06,05,01,12,19.90
2009,06,05,01,13,19.80
2009,06,05,01,14,19.80
2009,06,05,01,15,19.70
2009,06,05,01,16,19.70
2009,06,05,01,17,19.70
2009,06,05,01,18,19.80
2009,06,05,01,19,19.80
2009,06,05,01,20,19.80
2009,06,05,01,21,19.90
2009,06,05,01,22,19.90
2009,06,05,01,23,19.90
2009,06,05,01,24,20.00
2009,06,05,01,25,20.10
2009,06,05,01,26,20.10
2009,06,05,01,27,20.20
2009,06,05,01,28,20.20
2009,06,05,01,29,20.20
2009,06,05,01,30,20.10
2009,06,05,01,31,20.10
2009,06,05,01,32,20.10
2009,06,05,01,33,20.10
2009,06,05,01,34,20.10
2009,06,05,01,35,20.20
2009,06,05,01,36,20.20
2009,06,05,01,37,20.40
2009,06,05,01,38,20.50
2009,06,05,01,39,20.70
2009,06,05,01,40,20.80
2009,06,05,01,41,20.90
2009,06,05,01,42,21.00
2009,06,05,01,43,21.00
2009,06,05,01,44,21.00
2009,06,05,01,45,21.00
2009,06,05,01,46,21.10
2009,06,05,01,47,21.20
2009,06,05,01,48,21.20
2009,06,05,01,49,21.10
2009,06,05,01,50,21.00
2009,06,05,01,51,20.90
2009,06,05,01,52,20.70
2009,06,05,01,53,20.40
2009,06,05,01,54,20.00
2009,06,05,01,55,19.70
2009,06,05,01,56,19.40
2009,06,05,01,57,19.20
2009,06,05,01,58,19.10
2009,06,05,01,59,18.90
2009,06,05,02,00,18.90
2009,06,05,02,01,18.90
2009,06,05,02,02,18.80
2009,06,05,02,03,18.80
2009,06,05,02,04,18.70
2009,06,05,02,05,18.60
2009,06,05,02,06,18.50
2009,06,05,02,07,18.40
2009,06,05,02,08,18.30
2009,06,05,02,09,18.20
2009,06,05,02,10,18.10
2009,06,05,02,11,18.00
2009,06,05,02,12,17.90
2009,06,05,02,13,17.90
2009,06,05,02,14,17.90
2009,06,05,02,15,17.90
2009,06,05,02,16,17.90
2009,06,05,02,17,17.90
2009,06,05,02,18,17.90
2009,06,05,02,19,17.90
2009,06,05,02,20,17.90
2009,06,05,02,21,17.90
2009,06,05,02,22,17.90
2009,06,05,02,23,17.90
2009,06,05,02,24,17.90
2009,06,05,02,25,17.90
2009,06,05,02,26,17.80
2009,06,05,02,27,17.80
2009,06,05,02,28,17.80
2009,06,05,02,29,17.80
2009,06,05,02,30,17.70
2009,06,05,02,31,17.80
2009,06,05,02,32,17.80
2009,06,05,02,33,17.80
2009,06,05,02,34,17.80
2009,06,05,02,35,17.80
2009,06,05,02,36,17.70
2009,06,05,02,37,17.70
2009,06,05,02,38,17.70
2009,06,05,02,39,17.70
2009,06,05,02,40,17.80
2009,06,05,02,41,17.80
2009,06,05,02,42,17.80
2009,06,05,02,43,17.80
2009,06,05,02,44,17.80
2009,06,05,02,45,17.80
2009,06,05,02,46,17.80
2009,06,05,02,47,17.80
2009,06,05,02,48,17.80
2009,06,05,02,49,17.80
2009,06,05,02,50,17.80
2009,06,05,02,51,17.80
2009,06,05,02,52,17.80
2009,06,05,02,53,17.80
2009,06,05,02,54,17.80
2009,06,05,02,55,17.80
2009,06,05,02,56,17.70
2009,06,05,02,57,17.60
2009,06,05,02,58,17.50
2009,06,05,02,59,17.40
2009,06,05,03,00,17.30
2009,06,05,03,01,17.20
2009,06,05,03,02,17.20
2009,06,05,03,03,17.10
2009,06,05,03,04,17.10
2009,06,05,03,05,17.00
2009,06,05,03,06,17.00
2009,06,05,03,07,17.00
2009,06,05,03,08,17.00
2009,06,05,03,09,17.00
2009,06,05,03,10,17.00
2009,06,05,03,11,17.00
2009,06,05,03,12,16.90
2009,06,05,03,13,16.90
2009,06,05,03,14,16.90
2009,06,05,03,15,16.80
2009,06,05,03,16,16.80
2009,06,05,03,17,16.70
2009,06,05,03,18,16.70
2009,06,05,03,19,16.70
2009,06,05,03,20,16.70
2009,06,05,03,21,16.70
2009,06,05,03,22,16.60
2009,06,05,03,23,16.60
2009,06,05,03,24,16.60
2009,06,05,03,25,16.60
2009,06,05,03,26,16.50
2009,06,05,03,27,16.40
2009,06,05,03,28,16.40
2009,06,05,03,29,16.40
2009,06,05,03,30,16.40
2009,06,05,03,31,16.40
2009,06,05,03,32,16.30
2009,06,05,03,33,16.30
2009,06,05,03,34,16.30
2009,06,05,03,35,16.20
2009,06,05,03,36,16.20
2009,06,05,03,37,16.20
2009,06,05,03,38,16.10
2009,06,05,03,39,16.10
2009,06,05,03,40,16.10
2009,06,05,03,41,16.10
2009,06,05,03,42,16.00
2009,06,05,03,43,15.90
2009,06,05,03,44,15.90
2009,06,05,03,45,15.90
2009,06,05,03,46,15.80
2009,06,05,03,47,15.80
2009,06,05,03,48,15.80
2009,06,05,03,49,15.80
2009,06,05,03,50,15.70
2009,06,05,03,51,15.70
2009,06,05,03,52,15.70
2009,06,05,03,53,15.70
2009,06,05,03,54,15.70
2009,06,05,03,55,15.70
2009,06,05,03,56,15.60
2009,06,05,03,57,15.60
2009,06,05,03,58,15.60
2009,06,05,03,59,15.60
2009,06,05,04,00,15.60
2009,06,05,04,01,15.50
2009,06,05,04,02,15.50
2009,06,05,04,03,15.50
2009,06,05,04,04,15.50
2009,06,05,04,05,15.50
2009,06,05,04,06,15.50
2009,06,05,04,07,15.50
2009,06,05,04,08,15.50
2009,06,05,04,09,15.50
2009,06,05,04,10,15.50
2009,06,05,04,11,15.40
2009,06,05,04,12,15.40
2009,06,05,04,13,15.30
2009,06,05,04,14,15.30
2009,06,05,04,15,15.30
2009,06,05,04,16,15.30
2009,06,05,04,17,15.20
2009,06,05,04,18,15.20
2009,06,05,04,19,15.10
2009,06,05,04,20,15.10
2009,06,05,04,21,15.00
2009,06,05,04,22,14.90
2009,06,05,04,23,14.90
2009,06,05,04,24,14.80
2009,06,05,04,25,14.80
2009,06,05,04,26,14.70
2009,06,05,04,27,14.60
2009,06,05,04,28,14.60
2009,06,05,04,29,14.50
2009,06,05,04,30,14.50
2009,06,05,04,31,14.40
2009,06,05,04,32,14.40
2009,06,05,04,33,14.30
2009,06,05,04,34,14.20
2009,06,05,04,35,14.20
2009,06,05,04,36,14.20
2009,06,05,04,37,14.10
2009,06,05,04,38,14.10
2009,06,05,04,39,14.00
2009,06,05,04,40,14.00
2009,06,05,04,41,14.00
2009,06,05,04,42,14.00
2009,06,05,04,43,13.90
2009,06,05,04,44,13.90
2009,06,05,04,45,13.90
2009,06,05,04,46,13.90
2009,06,05,04,47,13.90
2009,06,05,04,48,13.90
2009,06,05,04,49,13.90
2009,06,05,04,50,13.90
2009,06,05,04,51,13.80
2009,06,05,04,52,13.80
2009,06,05,04,53,13.80
2009,06,05,04,54,13.80
2009,06,05,04,55,13.80
2009,06,05,04,56,13.70
2009,06,05,04,57,13.70
2009,06,05,04,58,13.70
2009,06,05,04,59,13.70
2009,06,05,05,00,13.70
2009,06,05,05,01,13.70
2009,06,05,05,02,13.60
2009,06,05,05,03,13.60
2009,06,05,05,04,13.60
2009,06,05,05,05,13.60
2009,06,05,05,06,13.50
2009,06,05,05,07,13.50
2009,06,05,05,08,13.50
2009,06,05,05,09,13.50
2009,06,05,05,10,13.50
2009,06,05,05,11,13.50
2009,06,05,05,12,13.50
2009,06,05,05,13,13.50
2009,06,05,05,14,13.50
2009,06,05,05,15,13.60
2009,06,05,05,16,13.60
2009,06,05,05,17,13.60
2009,06,05,05,18,13.50
2009,06,05,05,19,13.50
2009,06,05,05,20,13.50
2009,06,05,05,21,13.60
2009,06,05,05,22,13.60
2009,06,05,05,23,13.60
2009,06,05,05,24,13.60
2009,06,05,05,25,13.60
2009,06,05,05,26,13.60
2009,06,05,05,27,13.60
2009,06,05,05,28,13.60
2009,06,05,05,29,13.60
2009,06,05,05,30,13.60
2009,06,05,05,31,13.60
2009,06,05,05,32,13.60
2009,06,05,05,33,13.60
2009,06,05,05,34,13.60
2009,06,05,05,35,13.70
2009,06,05,05,36,13.70
2009,06,05,05,37,13.70
2009,06,05,05,38,13.70
2009,06,05,05,39,13.70
2009,06,05,05,40,13.60
2009,06,05,05,41,13.60
2009,06,05,05,42,13.60
2009,06,05,05,43,13.60
2009,06,05,05,44,13.60
2009,06,05,05,45,13.60
2009,06,05,05,46,13.60
2009,06,05,05,47,13.60
2009,06,05,05,48,13.60
2009,06,05,05,49,13.60
2009,06,05,05,50,13.60
2009,06,05,05,51,13.60
2009,06,05,05,52,13.60
2009,06,05,05,53,13.60
2009,06,05,05,54,13.60
2009,06,05,05,55,13.60
2009,06,05,05,56,13.60
2009,06,05,05,57,13.70
2009,06,05,05,58,13.70
2009,06,05,05,59,13.70
2009,06,05,06,00,13.70
2009,06,05,06,01,13.70
2009,06,05,06,02,13.70
2009,06,05,06,03,13.70
2009,06,05,06,04,13.70
2009,06,05,06,05,13.70
2009,06,05,06,06,13.70
2009,06,05,06,07,13.70
2009,06,05,06,08,13.70
2009,06,05,06,09,13.70
2009,06,05,06,10,13.70
2009,06,05,06,11,13.70
2009,06,05,06,12,13.70
2009,06,05,06,13,13.80
2009,06,05,06,14,13.80
2009,06,05,06,15,13.80
2009,06,05,06,16,13.90
2009,06,05,06,17,13.90
2009,06,05,06,18,13.90
2009,06,05,06,19,13.90
2009,06,05,06,20,13.90
2009,06,05,06,21,14.00
2009,06,05,06,22,14.00
2009,06,05,06,23,14.00
2009,06,05,06,24,14.00
2009,06,05,06,25,14.00
2009,06,05,06,26,14.00
2009,06,05,06,27,14.00
2009,06,05,06,28,14.00
2009,06,05,06,29,14.10
2009,06,05,06,30,14.10
2009,06,05,06,31,14.20
2009,06,05,06,32,14.20
2009,06,05,06,33,14.20
2009,06,05,06,34,14.20
2009,06,05,06,35,14.20
2009,06,05,06,36,14.20
2009,06,05,06,37,14.30
2009,06,05,06,38,14.30
2009,06,05,06,39,14.30
2009,06,05,06,40,14.40
2009,06,05,06,41,14.40
2009,06,05,06,42,14.40
2009,06,05,06,43,14.40
2009,06,05,06,44,14.50
2009,06,05,06,45,14.50
2009,06,05,06,46,14.60
2009,06,05,06,47,14.60
2009,06,05,06,48,14.70
2009,06,05,06,49,14.70
2009,06,05,06,50,14.80
2009,06,05,06,51,14.80
2009,06,05,06,52,14.90
2009,06,05,06,53,14.90
2009,06,05,06,54,15.00
2009,06,05,06,55,15.10
2009,06,05,06,56,15.10
2009,06,05,06,57,15.20
2009,06,05,06,58,15.20
2009,06,05,06,59,15.30
2009,06,05,07,00,15.30
2009,06,05,07,01,15.40
2009,06,05,07,02,15.40
2009,06,05,07,03,15.50
2009,06,05,07,04,15.50
2009,06,05,07,05,15.50
2009,06,05,07,06,15.50
2009,06,05,07,07,15.50
2009,06,05,07,08,15.50
2009,06,05,07,09,15.50
2009,06,05,07,10,15.50
2009,06,05,07,11,15.50
2009,06,05,07,12,15.60
2009,06,05,07,13,15.60
2009,06,05,07,14,15.60
2009,06,05,07,15,15.70
2009,06,05,07,16,15.70
2009,06,05,07,17,15.80
2009,06,05,07,18,15.80
2009,06,05,07,19,15.90
2009,06,05,07,20,16.00
2009,06,05,07,21,16.10
2009,06,05,07,22,16.20
2009,06,05,07,23,16.30
2009,06,05,07,24,16.30
2009,06,05,07,25,16.40
2009,06,05,07,26,16.50
2009,06,05,07,27,16.60
2009,06,05,07,28,16.70
2009,06,05,07,29,16.70
2009,06,05,07,30,16.70
2009,06,05,07,31,16.80
2009,06,05,07,32,16.90
2009,06,05,07,33,16.90
2009,06,05,07,34,17.00
2009,06,05,07,35,17.00
2009,06,05,07,36,17.10
2009,06,05,07,37,17.10
2009,06,05,07,38,17.10
2009,06,05,07,39,17.20
2009,06,05,07,40,17.20
2009,06,05,07,41,17.20
2009,06,05,07,42,17.30
2009,06,05,07,43,17.30
2009,06,05,07,44,17.40
2009,06,05,07,45,17.50
2009,06,05,07,46,17.60
2009,06,05,07,47,17.70
2009,06,05,07,48,17.80
2009,06,05,07,49,17.80
2009,06,05,07,50,17.90
2009,06,05,07,51,18.00
2009,06,05,07,52,18.10
2009,06,05,07,53,18.20
2009,06,05,07,54,18.20
2009,06,05,07,55,18.20
2009,06,05,07,56,18.20
2009,06,05,07,57,18.20
2009,06,05,07,58,18.30
2009,06,05,07,59,18.40
2009,06,05,08,00,18.50
2009,06,05,08,01,18.50
2009,06,05,08,02,18.60
2009,06,05,08,03,18.70
2009,06,05,08,04,18.70
2009,06,05,08,05,18.80
2009,06,05,08,06,18.90
2009,06,05,08,07,18.90
2009,06,05,08,08,19.00
2009,06,05,08,09,19.10
2009,06,05,08,10,19.10
2009,06,05,08,11,19.10
2009,06,05,08,12,19.10
2009,06,05,08,13,19.10
2009,06,05,08,14,19.10
2009,06,05,08,15,19.20
2009,06,05,08,16,19.10
2009,06,05,08,17,19.10
2009,06,05,08,18,19.10
2009,06,05,08,19,19.20
2009,06,05,08,20,19.10
2009,06,05,08,21,19.10
2009,06,05,08,22,19.10
2009,06,05,08,23,19.10
2009,06,05,08,24,19.10
2009,06,05,08,25,19.10
2009,06,05,08,26,19.20
2009,06,05,08,27,19.30
2009,06,05,08,28,19.40
2009,06,05,08,29,19.40
2009,06,05,08,30,19.50
2009,06,05,08,31,19.50
2009,06,05,08,32,19.60
2009,06,05,08,33,19.70
2009,06,05,08,34,19.70
2009,06,05,08,35,19.70
2009,06,05,08,36,19.70
2009,06,05,08,37,19.80
2009,06,05,08,38,19.80
2009,06,05,08,39,19.80
2009,06,05,08,40,19.90
2009,06,05,08,41,19.90
2009,06,05,08,42,19.90
2009,06,05,08,43,19.90
2009,06,05,08,44,19.90
2009,06,05,08,45,19.90
2009,06,05,08,46,19.90
2009,06,05,08,47,19.90
2009,06,05,08,48,20.10
2009,06,05,08,49,20.10
2009,06,05,08,50,20.00
2009,06,05,08,51,20.00
2009,06,05,08,52,19.90
2009,06,05,08,53,20.00
2009,06,05,08,54,20.10
2009,06,05,08,55,20.10
2009,06,05,08,56,20.20
2009,06,05,08,57,20.20
2009,06,05,08,58,20.20
2009,06,05,08,59,20.20
2009,06,05,09,00,20.20
2009,06,05,09,01,20.30
2009,06,05,09,02,20.30
2009,06,05,09,03,20.40
2009,06,05,09,04,20.40
2009,06,05,09,05,20.40
2009,06,05,09,06,20.40
2009,06,05,09,07,20.40
2009,06,05,09,08,20.40
2009,06,05,09,09,20.40
2009,06,05,09,10,20.40
2009,06,05,09,11,20.40
2009,06,05,09,12,20.50
2009,06,05,09,13,20.60
2009,06,05,09,14,20.70
2009,06,05,09,15,20.70
2009,06,05,09,16,20.70
2009,06,05,09,17,20.80
2009,06,05,09,18,20.80
2009,06,05,09,19,20.80
2009,06,05,09,20,20.80
2009,06,05,09,21,20.80
2009,06,05,09,22,20.90
2009,06,05,09,23,21.00
2009,06,05,09,24,21.10
2009,06,05,09,25,21.20
2009,06,05,09,26,21.30
2009,06,05,09,27,21.30
2009,06,05,09,28,21.40
2009,06,05,09,29,21.40
2009,06,05,09,30,21.40
2009,06,05,09,31,21.40
2009,06,05,09,32,21.50
2009,06,05,09,33,21.60
2009,06,05,09,34,21.60
2009,06,05,09,35,21.60
2009,06,05,09,36,21.60
2009,06,05,09,37,21.60
2009,06,05,09,38,21.60
2009,06,05,09,39,21.60
2009,06,05,09,40,21.40
2009,06,05,09,41,21.30
2009,06,05,09,42,21.30
2009,06,05,09,43,21.20
2009,06,05,09,44,21.20
2009,06,05,09,45,21.20
2009,06,05,09,46,21.20
2009,06,05,09,47,21.30
2009,06,05,09,48,21.30
2009,06,05,09,49,21.30
2009,06,05,09,50,21.40
2009,06,05,09,51,21.40
2009,06,05,09,52,21.40
2009,06,05,09,53,21.50
2009,06,05,09,54,21.60
2009,06,05,09,55,21.60
2009,06,05,09,56,21.70
2009,06,05,09,57,21.70
2009,06,05,09,58,21.60
2009,06,05,09,59,21.60
2009,06,05,10,00,21.60
2009,06,05,10,01,21.60
2009,06,05,10,02,21.60
2009,06,05,10,03,21.70
2009,06,05,10,04,21.70
2009,06,05,10,05,21.70
2009,06,05,10,06,21.60
2009,06,05,10,07,21.60
2009,06,05,10,08,21.60
2009,06,05,10,09,21.60
2009,06,05,10,10,21.70
2009,06,05,10,11,21.70
2009,06,05,10,12,21.70
2009,06,05,10,13,21.80
2009,06,05,10,14,21.80
2009,06,05,10,15,21.90
2009,06,05,10,16,22.00
2009,06,05,10,17,22.10
2009,06,05,10,18,22.20
2009,06,05,10,19,22.20
2009,06,05,10,20,22.20
2009,06,05,10,21,22.30
2009,06,05,10,22,22.30
2009,06,05,10,23,22.50
2009,06,05,10,24,22.60
2009,06,05,10,25,22.60
2009,06,05,10,26,22.60
2009,06,05,10,27,22.50
2009,06,05,10,28,22.40
2009,06,05,10,29,22.30
2009,06,05,10,30,22.30
2009,06,05,10,31,22.40
2009,06,05,10,32,22.40
2009,06,05,10,33,22.50
2009,06,05,10,34,22.60
2009,06,05,10,35,22.60
2009,06,05,10,36,22.70
2009,06,05,10,37,22.80
2009,06,05,10,38,22.90
2009,06,05,10,39,22.90
2009,06,05,10,40,22.90
2009,06,05,10,41,22.80
2009,06,05,10,42,22.80
2009,06,05,10,43,22.90
2009,06,05,10,44,22.90
2009,06,05,10,45,22.80
2009,06,05,10,46,22.80
2009,06,05,10,47,22.80
2009,06,05,10,48,22.90
2009,06,05,10,49,22.90
2009,06,05,10,50,22.80
2009,06,05,10,51,22.60
2009,06,05,10,52,22.40
2009,06,05,10,53,22.40
2009,06,05,10,54,22.30
2009,06,05,10,55,22.10
2009,06,05,10,56,21.90
2009,06,05,10,57,21.70
2009,06,05,10,58,21.60
2009,06,05,10,59,21.50
2009,06,05,11,00,21.40
2009,06,05,11,01,21.40
2009,06,05,11,02,21.30
2009,06,05,11,03,21.40
2009,06,05,11,04,21.40
2009,06,05,11,05,21.40
2009,06,05,11,06,21.30
2009,06,05,11,07,21.30
2009,06,05,11,08,21.30
2009,06,05,11,09,21.30
2009,06,05,11,10,21.30
2009,06,05,11,11,21.20
2009,06,05,11,12,21.20
2009,06,05,11,13,21.20
2009,06,05,11,14,21.30
2009,06,05,11,15,21.30
2009,06,05,11,16,21.30
2009,06,05,11,17,21.30
2009,06,05,11,18,21.30
2009,06,05,11,19,21.40
2009,06,05,11,20,21.40
2009,06,05,11,21,21.50
2009,06,05,11,22,21.60
2009,06,05,11,23,21.60
2009,06,05,11,24,21.60
2009,06,05,11,25,21.60
2009,06,05,11,26,21.60
2009,06,05,11,27,21.60
2009,06,05,11,28,21.70
2009,06,05,11,29,21.70
2009,06,05,11,30,21.70
2009,06,05,11,31,21.80
2009,06,05,11,32,21.80
2009,06,05,11,33,21.90
2009,06,05,11,34,22.00
2009,06,05,11,35,22.00
2009,06,05,11,36,22.20
2009,06,05,11,37,22.30
2009,06,05,11,38,22.30
2009,06,05,11,39,22.40
2009,06,05,11,40,22.50
2009,06,05,11,41,22.60
2009,06,05,11,42,22.50
2009,06,05,11,43,22.50
2009,06,05,11,44,22.50
2009,06,05,11,45,22.50
2009,06,05,11,46,22.60
2009,06,05,11,47,22.60
2009,06,05,11,48,22.60
2009,06,05,11,49,22.60
2009,06,05,11,50,22.60
2009,06,05,11,51,22.60
2009,06,05,11,52,22.60
2009,06,05,11,53,22.70
2009,06,05,11,54,22.80
2009,06,05,11,55,22.80
2009,06,05,11,56,22.70
2009,06,05,11,57,22.70
2009,06,05,11,58,22.60
2009,06,05,11,59,22.60
2009,06,05,12,00,22.60
2009,06,05,12,01,22.60
2009,06,05,12,02,22.60
2009,06,05,12,03,22.70
2009,06,05,12,04,22.70
2009,06,05,12,05,22.80
2009,06,05,12,06,22.80
2009,06,05,12,07,22.90
2009,06,05,12,08,22.90
2009,06,05,12,09,22.90
2009,06,05,12,10,22.90
2009,06,05,12,11,22.90
2009,06,05,12,12,22.80
2009,06,05,12,13,22.70
2009,06,05,12,14,22.60
2009,06,05,12,15,22.50
2009,06,05,12,16,22.40
2009,06,05,12,17,22.40
2009,06,05,12,18,22.50
2009,06,05,12,19,22.50
2009,06,05,12,20,22.60
2009,06,05,12,21,22.80
2009,06,05,12,22,22.90
2009,06,05,12,23,22.90
2009,06,05,12,24,22.90
2009,06,05,12,25,23.00
2009,06,05,12,26,23.10
2009,06,05,12,27,23.10
2009,06,05,12,28,23.10
2009,06,05,12,29,23.10
2009,06,05,12,30,22.90
2009,06,05,12,31,22.90
2009,06,05,12,32,22.80
2009,06,05,12,33,22.70
2009,06,05,12,34,22.70
2009,06,05,12,35,22.80
2009,06,05,12,36,22.80
2009,06,05,12,37,22.80
2009,06,05,12,38,22.70
2009,06,05,12,39,22.70
2009,06,05,12,40,22.60
2009,06,05,12,41,22.60
2009,06,05,12,42,22.60
2009,06,05,12,43,22.60
2009,06,05,12,44,22.50
2009,06,05,12,45,22.50
2009,06,05,12,46,22.30
2009,06,05,12,47,22.30
2009,06,05,12,48,22.30
2009,06,05,12,49,22.40
2009,06,05,12,50,22.50
2009,06,05,12,51,22.60
2009,06,05,12,52,22.70
2009,06,05,12,53,22.80
2009,06,05,12,54,22.70
2009,06,05,12,55,22.60
2009,06,05,12,56,22.60
2009,06,05,12,57,22.70
2009,06,05,12,58,22.60
2009,06,05,12,59,22.50
2009,06,05,13,00,22.50
2009,06,05,13,01,22.40
2009,06,05,13,02,22.30
2009,06,05,13,03,22.30
2009,06,05,13,04,22.30
2009,06,05,13,05,22.30
2009,06,05,13,06,22.40
2009,06,05,13,07,22.30
2009,06,05,13,08,22.30
2009,06,05,13,09,22.20
2009,06,05,13,10,22.20
2009,06,05,13,11,22.30
2009,06,05,13,12,22.30
2009,06,05,13,13,22.40
2009,06,05,13,14,22.50
2009,06,05,13,15,22.50
2009,06,05,13,16,22.50
2009,06,05,13,17,22.40
2009,06,05,13,18,22.50
2009,06,05,13,19,22.50
2009,06,05,13,20,22.40
2009,06,05,13,21,22.30
2009,06,05,13,22,22.30
2009,06,05,13,23,22.20
2009,06,05,13,24,22.30
2009,06,05,13,25,22.30
2009,06,05,13,26,22.30
2009,06,05,13,27,22.30
2009,06,05,13,28,22.40
2009,06,05,13,29,22.40
2009,06,05,13,30,22.50
2009,06,05,13,31,22.50
2009,06,05,13,32,22.60
2009,06,05,13,33,22.60
2009,06,05,13,34,22.60
2009,06,05,13,35,22.60
2009,06,05,13,36,22.70
2009,06,05,13,37,22.80
2009,06,05,13,38,22.90
2009,06,05,13,39,22.90
2009,06,05,13,40,22.90
2009,06,05,13,41,23.00
2009,06,05,13,42,22.90
2009,06,05,13,43,22.90
2009,06,05,13,44,22.90
2009,06,05,13,45,22.90
2009,06,05,13,46,23.00
2009,06,05,13,47,23.10
2009,06,05,13,48,23.10
2009,06,05,13,49,23.20
2009,06,05,13,50,23.10
2009,06,05,13,51,23.00
2009,06,05,13,52,22.90
2009,06,05,13,53,22.90
2009,06,05,13,54,22.90
2009,06,05,13,55,23.00
2009,06,05,13,56,23.10
2009,06,05,13,57,22.90
2009,06,05,13,58,22.90
2009,06,05,13,59,23.00
2009,06,05,14,00,23.10
2009,06,05,14,01,23.00
2009,06,05,14,02,22.90
2009,06,05,14,03,22.90
2009,06,05,14,04,22.90
2009,06,05,14,05,22.80
2009,06,05,14,06,22.70
2009,06,05,14,07,22.70
2009,06,05,14,08,22.60
2009,06,05,14,09,22.60
2009,06,05,14,10,22.50
2009,06,05,14,11,22.40
2009,06,05,14,12,22.30
2009,06,05,14,13,22.20
2009,06,05,14,14,22.20
2009,06,05,14,15,22.20
2009,06,05,14,16,22.10
2009,06,05,14,17,22.10
2009,06,05,14,18,22.10
2009,06,05,14,19,22.10
2009,06,05,14,20,22.10
2009,06,05,14,21,22.10
2009,06,05,14,22,22.20
2009,06,05,14,23,22.30
2009,06,05,14,24,22.30
2009,06,05,14,25,22.20
2009,06,05,14,26,22.10
2009,06,05,14,27,22.10
2009,06,05,14,28,22.00
2009,06,05,14,29,22.00
2009,06,05,14,30,21.90
2009,06,05,14,31,21.90
2009,06,05,14,32,21.90
2009,06,05,14,33,22.00
2009,06,05,14,34,22.10
2009,06,05,14,35,22.20
2009,06,05,14,36,22.30
2009,06,05,14,37,22.50
2009,06,05,14,38,22.60
2009,06,05,14,39,22.70
2009,06,05,14,40,22.80
2009,06,05,14,41,22.90
2009,06,05,14,42,22.90
2009,06,05,14,43,22.80
2009,06,05,14,44,22.70
2009,06,05,14,45,22.70
2009,06,05,14,46,22.80
2009,06,05,14,47,22.90
2009,06,05,14,48,22.90
2009,06,05,14,49,22.80
2009,06,05,14,50,22.70
2009,06,05,14,51,22.70
2009,06,05,14,52,22.70
2009,06,05,14,53,22.70
2009,06,05,14,54,22.70
2009,06,05,14,55,22.80
2009,06,05,14,56,22.80
2009,06,05,14,57,22.70
2009,06,05,14,58,22.70
2009,06,05,14,59,22.70
2009,06,05,15,00,22.80
2009,06,05,15,01,22.80
2009,06,05,15,02,22.70
2009,06,05,15,03,22.60
2009,06,05,15,04,22.60
2009,06,05,15,05,22.60
2009,06,05,15,06,22.60
2009,06,05,15,07,22.50
2009,06,05,15,08,22.50
2009,06,05,15,09,22.60
2009,06,05,15,10,22.60
2009,06,05,15,11,22.60
2009,06,05,15,12,22.60
2009,06,05,15,13,22.50
2009,06,05,15,14,22.50
2009,06,05,15,15,22.40
2009,06,05,15,16,22.40
2009,06,05,15,17,22.40
2009,06,05,15,18,22.40
2009,06,05,15,19,22.40
2009,06,05,15,20,22.50
2009,06,05,15,21,22.60
2009,06,05,15,22,22.60
2009,06,05,15,23,22.60
2009,06,05,15,24,22.60
2009,06,05,15,25,22.70
2009,06,05,15,26,22.80
2009,06,05,15,27,22.90
2009,06,05,15,28,22.90
2009,06,05,15,29,22.90
2009,06,05,15,30,23.00
2009,06,05,15,31,23.10
2009,06,05,15,32,23.10
2009,06,05,15,33,23.20
2009,06,05,15,34,23.20
2009,06,05,15,35,23.30
2009,06,05,15,36,23.30
2009,06,05,15,37,23.30
2009,06,05,15,38,23.30
2009,06,05,15,39,23.40
2009,06,05,15,40,23.40
2009,06,05,15,41,23.60
2009,06,05,15,42,23.60
2009,06,05,15,43,23.60
2009,06,05,15,44,23.50
2009,06,05,15,45,23.40
2009,06,05,15,46,23.40
2009,06,05,15,47,23.50
2009,06,05,15,48,23.60
2009,06,05,15,49,23.50
2009,06,05,15,50,23.40
2009,06,05,15,51,23.40
2009,06,05,15,52,23.50
2009,06,05,15,53,23.60
2009,06,05,15,54,23.70
2009,06,05,15,55,23.70
2009,06,05,15,56,23.80
2009,06,05,15,57,23.90
2009,06,05,15,58,24.00
2009,06,05,15,59,24.20
2009,06,05,16,00,24.20
2009,06,05,16,01,24.20
2009,06,05,16,02,24.30
2009,06,05,16,03,24.40
2009,06,05,16,04,24.40
2009,06,05,16,05,24.40
2009,06,05,16,06,24.30
2009,06,05,16,07,24.40
2009,06,05,16,08,24.40
2009,06,05,16,09,24.50
2009,06,05,16,10,24.60
2009,06,05,16,11,24.60
2009,06,05,16,12,24.50
2009,06,05,16,13,24.50
2009,06,05,16,14,24.50
2009,06,05,16,15,24.40
2009,06,05,16,16,24.40
2009,06,05,16,17,24.50
2009,06,05,16,18,24.60
2009,06,05,16,19,24.60
2009,06,05,16,20,24.60
2009,06,05,16,21,24.60
2009,06,05,16,22,24.70
2009,06,05,16,23,24.70
2009,06,05,16,24,24.80
2009,06,05,16,25,24.90
2009,06,05,16,26,24.90
2009,06,05,16,27,25.00
2009,06,05,16,28,25.00
2009,06,05,16,29,25.00
2009,06,05,16,30,24.90
2009,06,05,16,31,24.80
2009,06,05,16,32,24.70
2009,06,05,16,33,24.70
2009,06,05,16,34,24.70
2009,06,05,16,35,24.70
2009,06,05,16,36,24.70
2009,06,05,16,37,24.80
2009,06,05,16,38,24.90
2009,06,05,16,39,25.00
2009,06,05,16,40,25.00
2009,06,05,16,41,25.00
2009,06,05,16,42,25.00
2009,06,05,16,43,25.00
2009,06,05,16,44,25.00
2009,06,05,16,45,25.10
2009,06,05,16,46,25.10
2009,06,05,16,47,25.00
2009,06,05,16,48,24.90
2009,06,05,16,49,24.70
2009,06,05,16,50,24.70
2009,06,05,16,51,24.60
2009,06,05,16,52,24.40
2009,06,05,16,53,24.40
2009,06,05,16,54,24.30
2009,06,05,16,55,24.10
2009,06,05,16,56,24.00
2009,06,05,16,57,23.90
2009,06,05,16,58,23.80
2009,06,05,16,59,23.70
2009,06,05,17,00,23.70
2009,06,05,17,01,23.70
2009,06,05,17,02,23.80
2009,06,05,17,03,23.90
2009,06,05,17,04,23.80
2009,06,05,17,05,23.80
2009,06,05,17,06,23.80
2009,06,05,17,07,24.00
2009,06,05,17,08,24.10
2009,06,05,17,09,24.10
2009,06,05,17,10,24.10
2009,06,05,17,11,24.10
2009,06,05,17,12,24.10
2009,06,05,17,13,24.10
2009,06,05,17,14,24.30
2009,06,05,17,15,24.20
2009,06,05,17,16,24.20
2009,06,05,17,17,24.10
2009,06,05,17,18,24.10
2009,06,05,17,19,24.10